EW5637 Weather Reports


Display with metric or nautical units.
time (UTC)temp
F
wind
direction
speed
MPH
gust
MPH
rain 1hr
in
rain 24hr
in
rain mn
in
humidity
%
barometer
mb
20260505034549 64 231 3.0 9.0 0.00 0.00 0.00 63 1009.5
20260505034038 63 193 2.0 6.0 0.00 0.00 0.00 63 1009.5
20260505033538 63 254 2.0 8.0 0.00 0.00 0.00 65 1009.5
20260505033049 62 227 2.0 8.0 0.00 0.00 0.00 66 1009.5
20260505032541 61 197 3.0 8.0 0.00 0.00 0.00 67 1009.6
20260505032042 60 256 1.0 8.0 0.00 0.00 0.00 70 1009.5
20260505031553 58 203 2.0 6.0 0.00 0.00 0.00 73 1009.6
20260505031040 58 213 0.0 4.0 0.00 0.00 0.00 73 1009.6
20260505030543 58 0 1.0 4.0 0.00 0.00 0.00 73 1009.6
20260505030055 58 0 0.0 3.0 0.00 0.00 0.00 72 1009.5
20260505025541 59 0 0.0 2.0 0.00 0.00 0.00 71 1009.5
20260505025040 59 0 0.0 2.0 0.00 0.00 0.00 70 1009.5
20260505024548 60 200 0.0 3.0 0.00 0.00 0.00 68 1009.6
20260505024042 60 0 0.0 3.0 0.00 0.00 0.00 67 1009.6
20260505023540 61 0 0.0 4.0 0.00 0.00 0.00 66 1009.4
20260505023043 62 200 1.0 5.0 0.00 0.00 0.00 65 1009.4
20260505022541 62 202 1.0 6.0 0.00 0.00 0.00 65 1009.5
20260505022038 62 0 1.0 6.0 0.00 0.00 0.00 64 1009.3
20260505021552 63 182 1.0 5.0 0.00 0.00 0.00 63 1009.3
20260505021038 63 201 1.0 4.0 0.00 0.00 0.00 62 1009.4
20260505020541 64 180 1.0 6.0 0.00 0.00 0.00 62 1009.5
20260505020052 64 198 2.0 7.0 0.00 0.00 0.00 61 1009.5
20260505015542 64 213 2.0 7.0 0.00 0.00 0.00 61 1009.6
20260505015038 64 187 3.0 7.0 0.00 0.00 0.00 61 1009.5
20260505014549 64 169 0.0 8.0 0.00 0.00 0.00 60 1009.4
20260505014040 64 217 3.0 13.0 0.00 0.00 0.00 61 1009.4
20260505013537 63 180 2.0 13.0 0.00 0.00 0.00 62 1009.3
20260505013057 61 196 3.0 10.0 0.00 0.00 0.00 64 1009.3
20260505012540 60 178 2.0 6.0 0.00 0.00 0.00 65 1009.2
20260505012040 60 0 1.0 3.0 0.00 0.00 0.00 65 1009.3
20260505011553 60 0 1.0 3.0 0.00 0.00 0.00 64 1008.8
20260505011042 60 0 0.0 1.0 0.00 0.00 0.00 65 1009.0
20260505010540 60 0 0.0 2.0 0.00 0.00 0.00 65 1009.0
20260505010109 60 0 0.0 2.0 0.00 0.00 0.00 64 1008.9
20260505005538 61 0 0.0 2.0 0.00 0.00 0.00 63 1009.1
20260505005040 61 197 0.0 2.0 0.00 0.00 0.00 62 1008.9
20260505004548 62 0 0.0 0.0 0.00 0.00 0.00 60 1009.0
20260505004040 63 0 0.0 0.0 0.00 0.00 0.00 60 1008.8
20260505003538 63 0 0.0 2.0 0.00 0.00 0.00 58 1008.7
20260505003056 64 0 0.0 4.0 0.00 0.00 0.00 58 1008.7
20260505002540 65 199 0.0 6.0 0.00 0.00 0.00 56 1008.7
20260505002041 65 199 2.0 6.0 0.00 0.00 0.00 54 1008.6
20260505001550 66 198 3.0 7.0 0.00 0.00 0.00 53 1008.6
20260505001037 66 176 3.0 8.0 0.00 0.00 0.00 52 1008.5
20260505000540 67 186 3.0 8.0 0.00 0.00 0.00 52 1008.5
20260505000054 67 188 3.0 8.0 0.00 0.00 0.00 51 1008.6
20260504235540 68 179 3.0 9.0 0.00 0.00 0.00 50 1008.6
20260504235040 68 188 4.0 9.0 0.00 0.00 0.00 50 1008.6
20260504234549 69 186 3.0 8.0 0.00 0.00 0.00 48 1008.5
20260504234041 69 181 3.0 8.0 0.00 0.00 0.00 48 1008.3
20260504233541 70 163 3.0 9.0 0.00 0.00 0.00 48 1008.5
20260504233101 70 142 4.0 13.0 0.00 0.00 0.00 47 1008.3
20260504232541 70 153 5.0 14.0 0.00 0.00 0.00 46 1008.4
20260504232041 71 178 5.0 14.0 0.00 0.00 0.00 46 1008.5
20260504231548 71 186 3.0 11.0 0.00 0.00 0.00 46 1008.4
20260504231041 71 192 4.0 15.0 0.00 0.00 0.00 46 1008.4
20260504230541 71 179 7.0 15.0 0.00 0.00 0.00 46 1008.4
20260504230056 72 179 5.0 13.0 0.00 0.00 0.00 47 1008.4
20260504225542 72 132 4.0 16.0 0.00 0.00 0.00 46 1008.5
20260504225041 72 173 6.0 16.0 0.00 0.00 0.00 46 1008.5
20260504224552 72 165 4.0 12.0 0.00 0.00 0.00 46 1008.4
20260504224043 72 148 6.0 12.0 0.00 0.00 0.00 46 1008.4
20260504223541 72 169 4.0 13.0 0.00 0.00 0.00 47 1008.3
20260504223047 71 168 6.0 13.0 0.00 0.00 0.00 46 1008.5
20260504222541 71 150 4.0 12.0 0.00 0.00 0.00 46 1008.5
20260504222038 71 165 3.0 10.0 0.00 0.00 0.00 47 1008.5
20260504221546 71 165 4.0 11.0 0.00 0.00 0.00 47 1008.5
20260504221040 71 175 4.0 11.0 0.00 0.00 0.00 47 1008.5
20260504220541 71 165 4.0 17.0 0.00 0.00 0.00 46 1008.6
20260504220052 72 132 8.0 17.0 0.00 0.00 0.00 44 1008.6
20260504215543 72 138 7.0 15.0 0.00 0.00 0.00 45 1008.5
20260504215040 73 121 9.0 15.0 0.00 0.00 0.00 44 1008.6
20260504214556 73 138 6.0 14.0 0.00 0.00 0.00 46 1008.5
20260504214045 73 150 6.0 15.0 0.00 0.00 0.00 45 1008.5
20260504213545 72 126 6.0 15.0 0.00 0.00 0.00 47 1008.5
20260504213057 71 155 6.0 16.0 0.00 0.00 0.00 45 1008.4
20260504212541 71 163 7.0 16.0 0.00 0.00 0.00 45 1008.5
20260504212043 72 107 6.0 16.0 0.00 0.00 0.00 46 1008.5
20260504211546 73 156 9.0 16.0 0.00 0.00 0.00 45 1008.4
20260504211041 73 166 8.0 16.0 0.00 0.00 0.00 43 1008.3
20260504210540 73 176 8.0 16.0 0.00 0.00 0.00 42 1008.2
20260504210106 73 182 8.0 18.0 0.00 0.00 0.00 43 1008.3
20260504205537 73 117 8.0 18.0 0.00 0.00 0.00 44 1008.3
20260504205042 73 166 6.0 17.0 0.00 0.00 0.00 45 1008.4
20260504204559 73 169 8.0 17.0 0.00 0.00 0.00 42 1008.3
20260504204040 74 159 4.0 16.0 0.00 0.00 0.00 44 1008.3
20260504203540 73 179 6.0 16.0 0.00 0.00 0.00 42 1008.3
20260504203104 73 198 6.0 17.0 0.00 0.00 0.00 41 1008.3
20260504202542 74 203 7.0 17.0 0.00 0.00 0.00 45 1008.5
20260504202042 74 157 5.0 14.0 0.00 0.00 0.00 46 1008.5
20260504201554 74 165 7.0 13.0 0.00 0.00 0.00 43 1008.5
20260504201042 73 188 2.0 17.0 0.00 0.00 0.00 42 1008.5
20260504200541 73 186 8.0 19.0 0.00 0.00 0.00 42 1008.7
20260504200053 73 139 6.0 19.0 0.00 0.00 0.00 43 1008.8
20260504195542 73 134 5.0 14.0 0.00 0.00 0.00 42 1008.9
20260504195042 73 184 8.0 18.0 0.00 0.00 0.00 41 1009.0
20260504194602 73 209 4.0 19.0 0.00 0.00 0.00 42 1009.1
20260504194042 73 211 8.0 19.0 0.00 0.00 0.00 42 1009.3
20260504193542 73 167 9.0 17.0 0.00 0.00 0.00 45 1009.3
20260504193054 73 172 6.0 14.0 0.00 0.00 0.00 41 1009.4
20260504192545 73 232 4.0 20.0 0.00 0.00 0.00 48 1009.5
20260504192041 73 188 7.0 20.0 0.00 0.00 0.00 43 1009.6
20260504191551 73 184 8.0 17.0 0.00 0.00 0.00 43 1009.6
20260504191042 73 155 4.0 11.0 0.00 0.00 0.00 47 1009.7
20260504190543 72 190 5.0 13.0 0.00 0.00 0.00 44 1009.7
20260504190116 72 182 6.0 14.0 0.00 0.00 0.00 45 1009.8
20260504185540 72 241 3.0 16.0 0.00 0.00 0.00 46 1009.9
20260504185040 72 205 7.0 16.0 0.00 0.00 0.00 47 1010.1
20260504184552 71 202 8.0 16.0 0.00 0.00 0.00 41 1010.2
20260504184041 72 235 4.0 17.0 0.00 0.00 0.00 45 1010.2
20260504183541 72 175 8.0 18.0 0.00 0.00 0.00 43 1010.3
20260504183051 71 153 4.0 19.0 0.00 0.00 0.00 49 1010.3
20260504182540 71 177 9.0 19.0 0.00 0.00 0.00 45 1010.4
20260504182042 71 168 9.0 19.0 0.00 0.00 0.00 45 1010.6
20260504181554 70 179 3.0 11.0 0.00 0.00 0.00 47 1010.7
20260504181042 70 140 6.0 18.0 0.00 0.00 0.00 43 1010.8
20260504180544 70 207 9.0 22.0 0.00 0.00 0.00 45 1010.9
20260504180052 70 170 9.0 22.0 0.00 0.00 0.00 46 1011.0
20260504175543 70 172 8.0 16.0 0.00 0.00 0.00 47 1010.9
20260504175041 70 151 5.0 18.0 0.00 0.00 0.00 44 1011.0
20260504174558 69 221 9.0 18.0 0.00 0.00 0.00 45 1011.1
20260504174041 69 205 2.0 18.0 0.00 0.00 0.00 46 1011.1
20260504173541 69 207 8.0 18.0 0.00 0.00 0.00 49 1011.2
20260504173052 69 194 7.0 14.0 0.00 0.00 0.00 50 1011.3
20260504172540 69 196 6.0 15.0 0.00 0.00 0.00 42 1011.3
20260504172040 69 182 6.0 15.0 0.00 0.00 0.00 46 1011.4
20260504171552 69 207 4.0 16.0 0.00 0.00 0.00 47 1011.4
20260504171043 69 223 7.0 16.0 0.00 0.00 0.00 44 1011.5
20260504170542 68 249 4.0 10.0 0.00 0.00 0.00 45 1011.3
20260504151041 65 0 6.0 15.0 0.00 0.00 0.00 48 1012.7
20260504150540 65 209 7.0 15.0 0.00 0.00 0.00 46 1012.9
20260504141041 61 209 5.0 12.0 0.00 0.00 0.00 52 1013.0
20260504140541 60 240 2.0 10.0 0.00 0.00 0.00 53 1012.9
20260504130542 53 90 4.0 8.0 0.00 0.00 0.00 66 1013.4
20260504110544 40 0 0.0 0.0 0.00 0.00 0.00 88 1013.7
20260504100540 35 0 0.0 0.0 0.00 0.00 0.00 88 1013.9
20260504081559 35 0 0.0 0.0 0.00 0.00 0.00 88 1014.3
20260504081041 35 0 0.0 1.0 0.00 0.00 0.00 87 1014.2
20260504080541 35 0 0.0 2.0 0.00 0.00 0.00 87 1014.3
20260504060106 36 0 0.0 0.0 0.00 0.00 0.00 86 1014.7
20260504050544 35 266 1.0 2.0 0.00 0.00 0.00 85 1014.6
20260504050111 36 0 0.0 3.0 0.00 0.00 0.00 84 1014.6
20260504045541 36 0 1.0 3.0 0.00 0.00 0.00 84 1014.7
20260504045044 36 266 0.0 1.0 0.00 0.00 0.00 85 1014.7
20260504044545 36 0 0.0 1.0 0.00 0.00 0.00 85 1014.8
20260504044038 36 0 0.0 2.0 0.00 0.00 0.00 83 1014.9
20260504043541 37 0 0.0 2.0 0.00 0.00 0.00 84 1014.6
20260504043101 37 266 0.0 0.0 0.00 0.00 0.00 85 1014.6
20260504042538 37 0 0.0 0.0 0.00 0.00 0.00 85 1014.7
20260504042041 37 0 0.0 1.0 0.00 0.00 0.00 84 1014.7
20260504041550 37 0 0.0 3.0 0.00 0.00 0.00 84 1014.6
20260504041041 37 0 0.0 3.0 0.00 0.00 0.00 84 1014.6
20260504040541 37 266 2.0 3.0 0.00 0.00 0.00 84 1014.7
20260504040053 38 266 0.0 2.0 0.00 0.00 0.00 84 1014.8
20260504035541 38 266 1.0 3.0 0.00 0.00 0.00 84 1014.9
20260504035040 37 266 1.0 3.0 0.00 0.00 0.00 83 1014.7